[[{"header":{"parameterUnit":"m.s-1","parameterCategory":1,"la1":30.2991,"la2":30.254,"lo1":-89.0895,"lo2":-89.0444,"dy":0.0017,"dx":0.0017,"nx":28,"ny":28,"refTime":"2025-09-19T03:00:00:Z","depth":0,"parameterNumber":2,"parameterNumberName":"U-component_of_WINDS"},"data":[0,0,0,0,0,0,0,0,0,0,0,0,0,0,0,0,0,0,0,0,0,0,0,0,0,0,0,0,0,0,0,0,0,0,0,0,0,0,0,0,0,0,0,0,0,0,0,0,0,0,0,0,0,0,0,0,0,0,1.0593,1.0594,0,1.0669,1.0669,1.067,1.0726,1.0727,1.0727,1.0727,1.0802,1.0804,1.0805,0,0,0,0,0,0,0,0,0,0,0,0,0,1.0494,1.0496,1.0593,1.0594,1.0595,1.0668,1.0669,1.067,1.0726,1.0727,1.0727,1.0728,1.0802,1.0803,1.0805,0,0,0,0,0,0,0,0,0,0,0,0,0,1.055,1.0496,1.0593,1.0632,1.0636,1.0668,1.067,1.0671,1.0726,1.0727,1.0727,1.0728,1.0801,1.0803,1.0805,1.0805,0,0,1.0812,1.0813,0,0,0,0,0,0,0,0,1.0547,1.0553,1.0625,1.0629,1.0634,1.0689,1.0662,1.0716,1.0726,1.0692,1.0728,1.0728,1.0764,1.0769,1.0781,1.0808,1.0811,1.0813,1.0814,1.0815,1.0816,0,0,0,0,0,0,0,1.0543,1.055,1.0623,1.0626,1.0631,1.0644,1.0653,1.0672,1.0722,1.0695,1.0699,1.0707,1.0766,1.0779,1.0784,1.0812,1.0813,1.0815,1.0816,1.0817,1.0841,1.084,0,0,0,0,0,0,1.0533,1.0547,1.062,1.0625,1.0591,1.0645,1.0655,1.067,1.0722,1.0731,1.0706,1.0709,1.0775,1.0781,1.0786,1.0788,1.0815,1.0817,1.0818,1.0842,1.0841,1.084,0,0,0,0,0,0,1.0531,1.0539,1.0617,1.0587,1.0598,1.0646,1.0663,1.0671,1.0684,1.0731,1.074,1.0711,1.0776,1.0783,1.08,1.0791,1.0818,1.082,1.0843,1.0842,1.0841,1.0791,0,0,0,0,0,0,1.0528,1.0538,1.0539,1.0587,1.06,1.063,1.0662,1.0672,1.0689,1.0693,1.0738,1.0746,1.0777,1.0796,1.0802,1.0795,1.0822,1.0844,1.0842,1.0841,1.0794,1.0789,1.0784,0,0,0,0,0,1.0524,1.0522,1.0539,1.0547,1.0602,1.063,1.0637,1.0673,1.0688,1.0688,1.0718,1.0744,1.0792,1.0797,1.0804,1.0798,1.0844,1.0843,1.0841,1.0796,1.079,1.0784,0,0,0,0,0,0,1.0471,1.0529,1.0548,1.0562,1.059,1.0639,1.0641,1.0666,1.069,1.0693,1.0737,1.0746,1.0758,1.078,1.0785,1.0799,1.0821,1.0821,1.0784,1.0779,1.0774,1.0768,1.0824,0,0,0,0,0,1.0461,1.0479,1.0529,1.0536,1.0549,1.0592,1.0606,1.0632,1.0663,1.0675,1.0706,1.0734,1.0756,1.0769,1.0791,1.0798,1.0807,1.0797,1.0792,1.0788,1.0786,1.079,1.0786,1.0835,1.0835,1.0835,0,0,1.044,1.0474,1.0483,1.0526,1.0551,1.0568,1.0602,1.0619,1.0632,1.0677,1.0694,1.0718,1.0753,1.0764,1.0771,1.0783,1.0775,1.0786,1.0782,1.0783,1.0788,1.0783,1.0779,1.0834,1.0834,1.0834,0,0,1.041,1.0439,1.0447,1.0472,1.051,1.0538,1.054,1.0585,1.0603,1.0621,1.0655,1.0671,1.0707,1.073,1.0746,1.0725,1.0749,1.0731,1.0705,1.0708,1.0704,1.0701,1.0692,1.0688,1.073,1.073,1.0729,0,1.0379,1.0407,1.0448,1.0462,1.048,1.0523,1.053,1.0552,1.0595,1.0605,1.0619,1.0664,1.0691,1.0707,1.0702,1.0714,1.0717,1.0725,1.0702,1.0699,1.0696,1.0688,1.0685,1.0727,1.0727,1.0728,1.0728,0,1.0366,1.0385,1.0387,1.0428,1.0446,1.0457,1.0498,1.0511,1.0535,1.0562,1.0579,1.0613,1.0642,1.0648,1.0672,1.0667,1.0674,1.0694,1.0716,1.0688,1.0681,1.0679,1.0723,1.0724,1.0725,1.0726,0,0,1.0304,1.0368,1.0368,1.0386,1.0431,1.0446,1.0459,1.0488,1.0497,1.0526,1.0536,1.0566,1.0585,1.0603,1.063,1.0633,1.0612,1.0652,1.0654,1.0642,1.0608,1.0591,1.0587,1.0629,1.0628,1.0628,1.0604,0,1.028,1.0306,1.0343,1.0356,1.0373,1.0414,1.0425,1.0453,1.0478,1.0496,1.0524,1.0544,1.0568,1.0579,1.0584,1.0613,1.0605,1.0616,1.0638,1.0638,1.0626,1.0583,1.0566,1.0542,1.0602,1.0601,1.0601,0,1.0256,1.0282,1.0297,1.034,1.0348,1.0358,1.0387,1.0404,1.0436,1.0454,1.0475,1.0504,1.0518,1.0539,1.0559,1.0565,1.0576,1.0592,1.0592,1.0594,1.0616,1.0582,1.0535,1.053,1.0597,1.0598,1.0598,0,1.0207,1.0246,1.026,1.0275,1.0326,1.0331,1.0352,1.0386,1.04,1.0426,1.0436,1.0462,1.0476,1.0496,1.0531,1.0543,1.0546,1.057,1.056,1.0559,1.0557,1.0557,1.0509,1.0567,1.0567,1.0567,1.0568,0,1.0176,1.0183,1.0239,1.0247,1.0255,1.0297,1.0304,1.0329,1.0359,1.0371,1.0409,1.042,1.0466,1.0483,1.051,1.0521,1.0528,1.0542,1.0549,1.0538,1.0535,1.0544,1.0546,1.0567,1.0567,1.0567,1.0567,0,1.0122,1.016,1.0177,1.0224,1.0236,1.024,1.028,1.0289,1.0317,1.0332,1.0339,1.0382,1.0403,1.044,1.0472,1.0491,1.0495,1.0508,1.0484,1.0488,1.0475,1.0475,1.043,1.0426,1.0488,1.0487,1.0487,0,1.0098,1.0105,1.0152,1.0164,1.0184,1.0202,1.0218,1.0259,1.0274,1.0311,1.0315,1.0339,1.036,1.0392,1.0426,1.045,1.0462,1.0445,1.0466,1.0454,1.046,1.0459,1.0459,1.044,1.0439,1.0438,1.0437,0,1.0052,1.0071,1.0092,1.0119,1.0137,1.0161,1.0186,1.0193,1.024,1.0254,1.0277,1.0293,1.0326,1.0348,1.0377,1.0398,1.0425,1.0431,1.0429,1.0417,1.0402,1.0408,1.0469,1.0431,1.0432,1.0432,1.0433,1.0433,1.0012,1.0019,1.0053,1.0075,1.0099,1.0122,1.0132,1.0161,1.0181,1.0211,1.0234,1.0254,1.0286,1.0328,1.0347,1.0363,1.0375,1.0373,1.0373,1.0371,1.0366,1.0401,1.0368,1.0369,1.0369,1.0369,1.0369,0,0.9966,0.999,1.001,1.0044,1.0061,1.0087,1.0116,1.0128,1.0145,1.0173,1.0194,1.0218,1.0241,1.0277,1.0302,1.0307,1.032,1.0312,1.0311,1.0315,1.0354,1.0352,1.0301,1.0301,1.0301,1.0301,1.0301,1.0301,0.9944,0.9956,0.9979,1.0003,1.0027,1.0048,1.0062,1.0083,1.0105,1.0131,1.015,1.0174,1.0204,1.0232,1.0253,1.0263,1.0269,1.0257,1.0271,1.0306,1.0312,1.0318,1.0317,1.0259,1.0259,1.023,1.023,1.023]},{"header":{"parameterUnit":"m.s-1","parameterCategory":1,"la1":30.2991,"la2":30.254,"lo1":-89.0895,"lo2":-89.0444,"dy":0.0017,"dx":0.0017,"nx":28,"ny":28,"refTime":"2025-09-19T03:00:00:Z","depth":0,"parameterNumber":3,"parameterNumberName":"V-component_of_WINDS"},"data":[0,0,0,0,0,0,0,0,0,0,0,0,0,0,0,0,0,0,0,0,0,0,0,0,0,0,0,0,0,0,0,0,0,0,0,0,0,0,0,0,0,0,0,0,0,0,0,0,0,0,0,0,0,0,0,0,0,0,1.3227,1.3228,0,1.327,1.3271,1.3271,1.3245,1.3244,1.3242,1.3241,1.3284,1.3287,1.3289,0,0,0,0,0,0,0,0,0,0,0,0,0,1.312,1.3122,1.3227,1.3228,1.3228,1.327,1.3271,1.3271,1.3245,1.3244,1.3242,1.3241,1.3284,1.3286,1.3289,0,0,0,0,0,0,0,0,0,0,0,0,0,1.3165,1.3123,1.3227,1.322,1.322,1.327,1.3271,1.3272,1.3245,1.3244,1.3242,1.324,1.3283,1.3286,1.329,1.3349,0,0,1.33,1.3302,0,0,0,0,0,0,0,0,1.3163,1.3169,1.3221,1.3221,1.3221,1.325,1.3249,1.3297,1.3246,1.3236,1.3241,1.3239,1.3275,1.3279,1.3291,1.3351,1.3353,1.3301,1.3303,1.3304,1.3305,0,0,0,0,0,0,0,1.316,1.3167,1.3244,1.3222,1.3222,1.3214,1.3219,1.3258,1.3265,1.3237,1.3235,1.324,1.3274,1.3287,1.3292,1.3353,1.33,1.3304,1.3306,1.3307,1.3461,1.3463,0,0,0,0,0,0,1.3157,1.3165,1.3243,1.3246,1.3187,1.3218,1.3223,1.3243,1.3265,1.3266,1.3242,1.3239,1.3282,1.3288,1.3293,1.3362,1.3304,1.3307,1.3309,1.3459,1.3462,1.3464,0,0,0,0,0,0,1.3155,1.3165,1.3241,1.3205,1.3214,1.3222,1.3244,1.3245,1.3258,1.3269,1.327,1.3254,1.3281,1.3288,1.3335,1.3363,1.3309,1.3312,1.3457,1.346,1.3463,1.3502,0,0,0,0,0,0,1.3152,1.3164,1.3187,1.3205,1.3216,1.3283,1.3246,1.3247,1.3264,1.3261,1.3281,1.3282,1.328,1.3329,1.3338,1.3367,1.3315,1.3454,1.3458,1.3462,1.3498,1.3506,1.3512,0,0,0,0,0,1.3148,1.3197,1.3188,1.3198,1.3245,1.3285,1.3291,1.3288,1.3267,1.3289,1.3296,1.3281,1.3359,1.3335,1.3344,1.3374,1.3453,1.3457,1.3462,1.3495,1.3504,1.3512,0,0,0,0,0,0,1.3182,1.3199,1.319,1.3246,1.3264,1.328,1.3309,1.3298,1.3323,1.3318,1.3314,1.3318,1.3366,1.3375,1.3348,1.3432,1.3402,1.3409,1.3424,1.3433,1.344,1.3437,1.3318,0,0,0,0,0,1.3196,1.3227,1.324,1.3288,1.3297,1.3302,1.3319,1.3315,1.3333,1.3341,1.3351,1.3369,1.3397,1.3416,1.3442,1.3499,1.3502,1.3524,1.3532,1.3538,1.3543,1.3572,1.3581,1.3479,1.3479,1.3479,0,0,1.3225,1.3238,1.3258,1.3295,1.3308,1.3339,1.3308,1.3343,1.3366,1.3346,1.339,1.3398,1.3418,1.3469,1.3492,1.3478,1.3572,1.3543,1.3548,1.355,1.3577,1.3587,1.3596,1.3482,1.3481,1.3481,0,0,1.3293,1.3307,1.3347,1.3361,1.3382,1.3384,1.3394,1.3411,1.3416,1.346,1.3445,1.3472,1.3521,1.3535,1.3548,1.362,1.3607,1.3629,1.3667,1.3695,1.3703,1.371,1.3734,1.3743,1.3635,1.3635,1.3635,0,1.3326,1.3373,1.3369,1.3405,1.3421,1.3404,1.3444,1.3458,1.3486,1.3497,1.348,1.354,1.3553,1.3606,1.3623,1.3635,1.3645,1.3627,1.3702,1.3709,1.3716,1.3739,1.3748,1.3637,1.3637,1.3637,1.3636,0,1.3412,1.3445,1.3475,1.3503,1.3522,1.356,1.356,1.358,1.3574,1.3578,1.3622,1.3636,1.3664,1.3677,1.3672,1.3729,1.3719,1.3703,1.3673,1.3728,1.3749,1.3758,1.3641,1.364,1.3639,1.3638,0,0,1.3504,1.3527,1.3538,1.355,1.357,1.3595,1.3631,1.3659,1.3675,1.3695,1.3725,1.3766,1.375,1.3765,1.3761,1.3786,1.384,1.3766,1.3766,1.3778,1.3902,1.3914,1.3924,1.3831,1.3833,1.3834,1.39,0,1.3573,1.3636,1.3633,1.3692,1.3721,1.3704,1.3736,1.3751,1.3755,1.378,1.3784,1.3813,1.379,1.3799,1.3823,1.3828,1.3864,1.3824,1.3858,1.3859,1.3852,1.3936,1.3949,1.401,1.3908,1.391,1.3911,0,1.3662,1.3684,1.3746,1.376,1.3772,1.3801,1.3824,1.3849,1.3865,1.3866,1.3883,1.3874,1.3909,1.3879,1.3927,1.3899,1.3912,1.3917,1.3919,1.3922,1.3888,1.3939,1.403,1.4038,1.3924,1.3923,1.3922,0,1.3721,1.3766,1.3808,1.3818,1.3837,1.3857,1.3865,1.388,1.3896,1.3917,1.3927,1.3952,1.3965,1.3984,1.3982,1.396,1.403,1.4,1.403,1.4031,1.4046,1.4045,1.4138,1.4056,1.4056,1.4056,1.4055,0,1.3797,1.3835,1.3834,1.3861,1.3902,1.3897,1.3939,1.3945,1.3958,1.3984,1.3971,1.3996,1.3992,1.4016,1.4015,1.4053,1.406,1.4061,1.406,1.4062,1.4061,1.407,1.4065,1.4058,1.4058,1.4057,1.4057,0,1.387,1.3871,1.3916,1.3929,1.3933,1.3963,1.3974,1.3998,1.4001,1.4034,1.4041,1.4045,1.4073,1.4072,1.4104,1.4103,1.415,1.4145,1.4145,1.4143,1.4174,1.417,1.4276,1.4289,1.4199,1.42,1.42,0,1.3918,1.3947,1.3963,1.398,1.3989,1.4016,1.4032,1.4028,1.4045,1.4065,1.4086,1.4113,1.4134,1.4179,1.4184,1.4208,1.4202,1.4238,1.4206,1.4206,1.4201,1.4199,1.4201,1.4244,1.4245,1.4245,1.4246,0,1.4004,1.4002,1.4026,1.405,1.4069,1.4087,1.4104,1.4118,1.4116,1.4136,1.4164,1.418,1.4212,1.4238,1.426,1.4268,1.4256,1.4256,1.4264,1.4266,1.4264,1.4264,1.4161,1.4254,1.4253,1.4252,1.4252,1.4252,1.4065,1.4089,1.4103,1.413,1.4142,1.4158,1.418,1.4185,1.4208,1.4234,1.423,1.4261,1.4275,1.4304,1.4314,1.4337,1.4325,1.4337,1.434,1.4343,1.4346,1.4261,1.4342,1.4342,1.4341,1.4341,1.4341,0,1.4148,1.4157,1.4181,1.4204,1.4225,1.4212,1.4229,1.4247,1.4274,1.4289,1.4309,1.4341,1.4365,1.4372,1.4395,1.4413,1.4408,1.4419,1.4417,1.4419,1.4356,1.4346,1.4423,1.4423,1.4423,1.4423,1.4423,1.4423,1.4194,1.4234,1.4234,1.4278,1.4286,1.4316,1.4327,1.4341,1.4352,1.4388,1.4408,1.4412,1.4423,1.4447,1.4469,1.447,1.4479,1.4492,1.4491,1.4432,1.4424,1.4416,1.4406,1.4494,1.4494,1.4551,1.4552,1.4552]}]]